TimeEST,TemperatureF,Dew PointF,Humidity,Sea Level PressureIn,VisibilityMPH,Wind Direction,Wind SpeedMPH,Gust SpeedMPH,PrecipitationIn,Events,Conditions,WindDirDegrees,DateUTC
12:54 AM,8.1,-2.9,61,30.25,9.0,Calm,Calm,-,0.00,Snow,Light Snow,0,2013-01-03 05:54:00
1:54 AM,5.0,-5.1,63,30.24,9.0,East,4.6,-,0.00,,Overcast,80,2013-01-03 06:54:00
2:54 AM,3.0,-7.1,63,30.24,10.0,East,4.6,-,N/A,,Overcast,80,2013-01-03 07:54:00
3:54 AM,3.0,-7.1,63,30.22,10.0,East,6.9,-,N/A,,Overcast,90,2013-01-03 08:54:00
4:54 AM,1.9,-8.0,63,30.21,10.0,East,6.9,-,0.00,Snow,Light Snow,90,2013-01-03 09:54:00
5:54 AM,-0.0,-9.0,66,30.20,9.0,East,6.9,-,0.00,Snow,Light Snow,90,2013-01-03 10:54:00
6:54 AM,-0.0,-8.0,69,30.20,9.0,East,6.9,-,0.00,Snow,Light Snow,90,2013-01-03 11:54:00
7:54 AM,1.0,-7.1,69,30.19,9.0,East,3.5,-,0.00,Snow,Light Snow,80,2013-01-03 12:54:00
8:50 AM,1.4,-5.8,72,30.16,2.5,East,3.5,-,0.00,Snow,Light Snow,90,2013-01-03 13:50:00
8:54 AM,1.9,-5.1,72,30.18,2.0,East,4.6,-,0.00,Snow,Light Snow,100,2013-01-03 13:54:00
9:08 AM,1.4,-4.0,78,30.16,1.8,East,3.5,-,0.00,Snow,Light Snow,90,2013-01-03 14:08:00
9:24 AM,1.4,-4.0,78,30.15,1.5,East,4.6,-,0.00,Snow,Light Snow,100,2013-01-03 14:24:00
9:44 AM,3.2,-2.2,78,30.15,2.0,East,5.8,-,0.00,Snow,Light Snow,100,2013-01-03 14:44:00
9:54 AM,3.9,-2.0,76,30.16,2.0,East,5.8,-,0.00,Snow,Light Snow,100,2013-01-03 14:54:00
10:02 AM,3.2,-2.2,78,30.14,3.0,ESE,5.8,-,0.00,Snow,Light Snow,110,2013-01-03 15:02:00
10:54 AM,7.0,-0.0,73,30.14,4.0,ESE,4.6,-,0.00,Snow,Light Snow,110,2013-01-03 15:54:00
11:21 AM,8.6,1.4,73,30.12,2.5,ESE,3.5,-,0.00,Snow,Light Snow,120,2013-01-03 16:21:00
11:31 AM,8.6,1.4,73,30.11,3.0,ESE,3.5,-,0.00,Snow,Light Snow,120,2013-01-03 16:31:00
11:54 AM,10.0,3.0,73,30.11,4.0,ESE,3.5,-,0.00,Snow,Light Snow,120,2013-01-03 16:54:00
12:54 PM,12.9,6.1,74,30.07,10.0,ESE,4.6,-,0.00,,Overcast,110,2013-01-03 17:54:00
1:27 PM,14.0,6.8,73,30.03,2.5,ESE,4.6,-,0.00,Snow,Light Snow,110,2013-01-03 18:27:00
1:43 PM,15.8,8.6,73,30.02,1.5,ESE,4.6,-,0.00,Snow,Light Snow,120,2013-01-03 18:43:00
1:54 PM,15.1,8.1,74,30.04,2.5,ESE,3.5,-,0.00,Snow,Light Snow,110,2013-01-03 18:54:00
2:18 PM,15.8,8.6,73,30.01,1.8,East,5.8,-,0.00,Snow,Light Snow,100,2013-01-03 19:18:00
2:29 PM,15.8,10.4,79,30.01,0.8,East,4.6,-,0.00,Snow,Light Snow,100,2013-01-03 19:29:00
2:36 PM,15.8,10.4,79,30.01,1.0,East,3.5,-,0.00,Snow,Light Snow,100,2013-01-03 19:36:00
2:49 PM,15.8,10.4,79,30.00,3.0,East,3.5,-,0.00,Snow,Light Snow,100,2013-01-03 19:49:00
2:54 PM,16.0,10.9,81,30.02,3.0,East,4.6,-,0.00,Snow,Light Snow,100,2013-01-03 19:54:00
2:58 PM,15.8,10.4,79,30.00,2.5,East,4.6,-,0.00,Snow,Light Snow,100,2013-01-03 19:58:00
3:10 PM,17.6,10.4,73,30.00,1.2,East,4.6,-,0.01,Snow,Light Snow,90,2013-01-03 20:10:00
3:27 PM,17.6,12.2,79,30.00,2.0,East,3.5,-,0.01,Snow,Light Snow,90,2013-01-03 20:27:00
3:54 PM,18.0,12.0,78,30.01,3.0,East,4.6,-,0.01,Snow,Light Snow,100,2013-01-03 20:54:00
4:54 PM,18.0,12.9,81,30.00,3.0,East,4.6,-,0.00,Snow,Light Snow,90,2013-01-03 21:54:00
5:43 PM,19.4,14.0,80,29.99,2.0,East,3.5,-,0.00,Snow,Light Snow,80,2013-01-03 22:43:00
5:54 PM,19.9,15.1,81,30.00,2.0,Calm,Calm,-,0.00,Snow,Light Snow,0,2013-01-03 22:54:00
6:00 PM,19.4,15.8,86,29.98,2.0,East,3.5,-,0.00,Snow,Light Snow,90,2013-01-03 23:00:00
6:17 PM,19.4,15.8,86,29.98,1.8,East,3.5,-,0.00,Snow,Light Snow,100,2013-01-03 23:17:00
6:54 PM,21.9,18.0,85,29.99,2.0,SSW,3.5,-,0.00,Snow,Light Snow,200,2013-01-03 23:54:00
7:16 PM,28.4,21.2,74,29.97,3.0,SW,6.9,-,0.01,Snow,Light Snow,220,2013-01-04 00:16:00
7:29 PM,28.4,21.2,74,29.97,2.5,SW,5.8,-,0.01,Snow,Light Snow,230,2013-01-04 00:29:00
7:54 PM,28.9,23.0,78,29.99,2.5,SW,10.4,-,0.01,Snow,Light Snow,230,2013-01-04 00:54:00
8:16 PM,28.4,23.0,80,29.97,4.0,WSW,10.4,-,0.00,Snow,Light Snow,240,2013-01-04 01:16:00
8:54 PM,30.0,23.0,75,29.98,6.0,WSW,13.8,-,0.00,Snow,Light Snow,250,2013-01-04 01:54:00
9:44 PM,30.2,23.0,75,29.97,8.0,WSW,17.3,-,0.00,Snow,Light Snow,250,2013-01-04 02:44:00
9:54 PM,30.0,21.9,72,29.99,9.0,WSW,17.3,-,0.00,Snow,Light Snow,250,2013-01-04 02:54:00
10:34 PM,30.2,23.0,75,29.97,10.0,WSW,20.7,-,0.00,,Overcast,250,2013-01-04 03:34:00
10:54 PM,30.0,21.9,72,29.98,9.0,WSW,15.0,-,0.00,Snow,Light Snow,250,2013-01-04 03:54:00
11:54 PM,30.0,21.9,72,29.97,9.0,WSW,16.1,-,0.00,Snow,Light Snow,240,2013-01-04 04:54:00